Location: 5810 Zion Rd, Cleves, OH 45002, USA
(39.1922°N, 84.7113°W)
Time: 02:39:57
(UTC-05:00)

deb Explorer IX - Visible Passes

Search period start: 14 December 2019 00:00
Search period end: 24 December 2019 00:00
Orbit: 546 x 1104 km, 38.8° (Epoch: 14 December)

Date Brightness Start Highest point End Pass type
(mag) Time Alt. Az. Time Alt. Az. Time Alt. Az.
14 Dec ? 18:26:07 10° W 18:32:06 81° S 18:37:51 15° ESE visible
14 Dec ? 20:13:10 10° W 20:19:14 45° SSW 20:19:14 45° SSW visible
15 Dec ? 18:04:09 10° W 18:09:57 80° S 18:16:44 10° ESE visible
15 Dec ? 19:51:09 10° W 19:57:07 44° SSW 19:58:49 37° S visible
15 Dec ? 21:40:01 10° WSW 21:40:13 11° WSW 21:40:13 11° WSW visible
16 Dec ? 17:42:12 10° W 17:47:50 79° S 17:54:27 10° ESE visible
16 Dec ? 19:29:09 10° W 19:34:57 42° SSW 19:38:34 24° SSE visible
16 Dec ? 21:18:04 10° WSW 21:19:59 14° SW 21:19:59 14° SW visible
17 Dec ? 19:07:10 10° W 19:12:47 41° SSW 19:18:33 12° SE visible
17 Dec ? 20:56:12 10° WSW 20:59:25 14° SW 21:00:00 14° SSW visible
18 Dec ? 18:45:13 10° W 18:50:38 40° SSW 18:56:49 10° SE visible
18 Dec ? 20:34:22 10° WSW 20:37:15 13° SW 20:40:15 10° SSW visible
19 Dec ? 18:23:16 10° W 18:28:30 38° SSW 18:34:29 10° SE visible
19 Dec ? 20:12:36 10° WSW 20:15:05 12° SW 20:17:40 10° SSW visible
20 Dec ? 18:01:19 10° W 18:06:22 37° SSW 18:12:09 10° SE visible
20 Dec ? 19:50:57 10° WSW 19:52:56 12° SW 19:54:59 10° SSW visible
21 Dec ? 17:39:24 10° W 17:44:15 35° SSW 17:49:50 10° SE visible
21 Dec ? 19:29:30 10° SW 19:30:47 11° SW 19:32:06 10° SSW visible
